This demonstration page uses our WeatherBlox Daily Observations layout. Learn more.

Left ArrowRight Arrow

Hourly Observations for April 4, 2015

Temp ( °F °C ) Dew Point ( °F °C ) Humidity (%) Winds ( mph kmh ) Pressure ( in mb ) Visibility ( mi km ) Precip ( " mm )
12:15 am 00:15 Mostly Cloudy 39 4 27 -3 61 61 N 18 30 30.12 1020 10 16.0934 N/A
12:36 am 00:36 Mostly Cloudy 39 4 25 -4 56 56 NNW 16 26 30.15 1021 10 16.0934 N/A
12:56 am 00:56 Mostly Cloudy 37 3 25 -4 60 60 N 15 24 30.18 1022 10 16.0934 N/A
1:15 am 01:15 Cloudy 37 3 25 -4 60 60 NNW 16 26 30.21 1023 10 16.0934 N/A
1:36 am 01:36 Cloudy 37 3 25 -4 60 60 N 13 20 30.21 1023 10 16.0934 N/A
1:56 am 01:56 Cloudy 37 3 23 -5 56 56 N 12 19 30.24 1024 10 16.0934 N/A
2:15 am 02:15 Cloudy 37 3 21 -6 52 52 N 23 37 30.24 1024 10 16.0934 N/A
2:36 am 02:36 Mostly Cloudy 36 2 21 -6 56 56 N 12 19 30.24 1024 10 16.0934 N/A
2:56 am 02:56 Partly Cloudy 36 2 21 -6 56 56 NNW 10 17 30.24 1024 10 16.0934 N/A
3:15 am 03:15 Clear 34 1 21 -6 60 60 NNW 13 20 30.24 1024 10 16.0934 N/A
3:36 am 03:36 Clear 34 1 21 -6 60 60 NNW 10 17 30.24 1024 10 16.0934 N/A
3:55 am 03:55 Clear 34 1 19 -7 56 56 NNW 10 17 30.24 1024 10 16.0934 N/A
4:16 am 04:16 Clear 32 0 19 -7 60 60 NW 7 11 30.27 1025 10 16.0934 N/A
4:36 am 04:36 Clear 32 0 19 -7 60 60 NW 5 7 30.27 1025 10 16.0934 N/A
4:55 am 04:55 Clear 32 0 19 -7 60 60 NW 6 9 30.27 1025 10 16.0934 N/A
5:16 am 05:16 Clear 32 0 19 -7 60 60 WNW 6 9 30.27 1025 10 16.0934 N/A
5:36 am 05:36 Clear 32 0 19 -7 60 60 NNW 7 11 30.3 1026 10 16.0934 N/A
5:55 am 05:55 Clear 30 -1 19 -7 64 64 NW 7 11 30.3 1026 10 16.0934 N/A
6:16 am 06:16 Clear 30 -1 21 -6 69 69 NW 7 11 30.3 1026 10 16.0934 N/A
6:36 am 06:36 Clear 30 -1 21 -6 69 69 NW 6 9 30.3 1026 10 16.0934 N/A
6:55 am 06:55 Clear 30 -1 21 -6 69 69 NW 5 7 30.3 1026 10 16.0934 N/A
7:16 am 07:16 Clear 28 -2 23 -5 80 80 WNW 3 6 30.33 1027 10 16.0934 N/A
7:36 am 07:36 Sunny 28 -2 23 -5 80 80 NW 5 7 30.33 1027 10 16.0934 N/A
7:55 am 07:55 Sunny 30 -1 23 -5 75 75 WNW 5 7 30.33 1027 10 16.0934 N/A
8:16 am 08:16 Sunny 32 0 25 -4 75 75 WNW 5 7 30.36 1028 10 16.0934 N/A
8:36 am 08:36 Sunny 32 0 25 -4 75 75 NW 5 7 30.36 1028 10 16.0934 N/A
8:55 am 08:55 Sunny 34 1 25 -4 70 70 NW 5 7 30.36 1028 10 16.0934 N/A
9:16 am 09:16 Sunny 34 1 25 -4 70 70 NNW 7 11 30.36 1028 10 16.0934 N/A
9:35 am 09:35 Partly Cloudy 36 2 25 -4 65 65 N 6 9 30.36 1028 10 16.0934 N/A
9:56 am 09:56 Partly Cloudy 37 3 25 -4 60 60 N 3 6 30.36 1028 10 16.0934 N/A
10:16 am 10:16 Partly Cloudy 37 3 23 -5 56 56 Calm 30.36 1028 10 16.0934 N/A
10:35 am 10:35 Sunny 39 4 25 -4 56 56 WSW 3 6 30.36 1028 10 16.0934 N/A
10:56 am 10:56 Sunny 39 4 23 -5 52 52 SW 3 6 30.36 1028 10 16.0934 N/A
11:16 am 11:16 Sunny 41 5 21 -6 45 45 WSW 3 6 30.36 1028 10 16.0934 N/A
11:35 am 11:35 Sunny 41 5 21 -6 45 45 WSW 6 9 30.39 1029 10 16.0934 N/A
11:56 am 11:56 Sunny 43 6 21 -6 42 42 SW 5 7 30.33 1027 10 16.0934 N/A
12:16 pm 12:16 Sunny 45 7 21 -6 39 39 WSW 10 17 30.33 1027 10 16.0934 N/A
12:35 pm 12:35 Sunny 45 7 21 -6 39 39 WSW 10 17 30.33 1027 10 16.0934 N/A
12:56 pm 12:56 Sunny 46 8 18 -8 32 32 WSW 6 9 30.33 1027 10 16.0934 N/A
1:15 pm 13:15 Sunny 46 8 19 -7 34 34 SW 7 11 30.33 1027 10 16.0934 N/A
1:36 pm 13:36 Sunny 48 9 18 -8 29 29 W 12 19 30.33 1027 10 16.0934 N/A
1:56 pm 13:56 Sunny 48 9 18 -8 29 29 W 8 13 30.33 1027 10 16.0934 N/A
2:15 pm 14:15 Sunny 50 10 18 -8 28 28 WSW 9 15 30.33 1027 10 16.0934 N/A
2:36 pm 14:36 Sunny 52 11 19 -7 28 28 W 14 22 30.3 1026 10 16.0934 N/A
2:56 pm 14:56 Sunny 52 11 19 -7 28 28 WSW 15 24 30.3 1026 10 16.0934 N/A
3:15 pm 15:15 Sunny 52 11 18 -8 26 26 W 13 20 30.3 1026 10 16.0934 N/A
3:36 pm 15:36 Sunny 54 12 21 -6 28 28 W 18 30 30.3 1026 10 16.0934 N/A
3:56 pm 15:56 Sunny 52 11 21 -6 30 30 SW 14 22 30.27 1025 10 16.0934 N/A
4:15 pm 16:15 Sunny 54 12 21 -6 28 28 WSW 12 19 30.27 1025 10 16.0934 N/A
4:36 pm 16:36 Sunny 54 12 19 -7 26 26 WSW 17 28 30.27 1025 10 16.0934 N/A
4:56 pm 16:56 Sunny 54 12 18 -8 24 24 WSW 12 19 30.27 1025 10 16.0934 N/A
5:15 pm 17:15 Sunny 55 13 19 -7 24 24 W 14 22 30.27 1025 10 16.0934 N/A
5:36 pm 17:36 Sunny 54 12 18 -8 24 24 W 17 28 30.27 1025 10 16.0934 N/A
5:56 pm 17:56 Sunny 54 12 16 -9 22 22 SW 10 17 30.24 1024 10 16.0934 N/A
6:15 pm 18:15 Sunny 54 12 18 -8 24 24 W 17 28 30.24 1024 10 16.0934 N/A
6:36 pm 18:36 Sunny 54 12 18 -8 24 24 WSW 18 30 30.24 1024 10 16.0934 N/A
6:56 pm 18:56 Sunny 52 11 18 -8 26 26 WSW 14 22 30.24 1024 10 16.0934 N/A
7:15 pm 19:15 Sunny 52 11 18 -8 26 26 WSW 9 15 30.24 1024 10 16.0934 N/A
7:36 pm 19:36 Sunny 50 10 18 -8 28 28 WSW 14 22 30.24 1024 10 16.0934 N/A
7:56 pm 19:56 Sunny 50 10 18 -8 28 28 WSW 14 22 30.24 1024 10 16.0934 N/A
8:15 pm 20:15 Clear 50 10 18 -8 28 28 WSW 12 19 30.24 1024 10 16.0934 N/A
8:36 pm 20:36 Clear 48 9 19 -7 32 32 WSW 10 17 30.24 1024 10 16.0934 N/A
8:56 pm 20:56 Clear 48 9 21 -6 34 34 WSW 10 17 30.24 1024 10 16.0934 N/A
9:16 pm 21:16 Clear 48 9 21 -6 34 34 SW 10 17 30.24 1024 10 16.0934 N/A
9:36 pm 21:36 Clear 46 8 23 -5 40 40 SW 6 9 30.27 1025 10 16.0934 N/A
9:55 pm 21:55 Clear 45 7 23 -5 42 42 SW 7 11 30.27 1025 10 16.0934 N/A
10:16 pm 22:16 Clear 46 8 23 -5 40 40 SW 9 15 30.27 1025 10 16.0934 N/A
10:36 pm 22:36 Clear 46 8 25 -4 43 43 SW 10 17 30.27 1025 10 16.0934 N/A
10:55 pm 22:55 Clear 46 8 23 -5 40 40 SW 10 17 30.27 1025 10 16.0934 N/A
11:16 pm 23:16 Clear 46 8 23 -5 40 40 SW 10 17 30.27 1025 10 16.0934 N/A
11:36 pm 23:36 Clear 45 7 23 -5 42 42 SW 10 17 30.24 1024 10 16.0934 N/A
11:55 pm 23:55 Clear 45 7 23 -5 42 42 SW 10 17 30.24 1024 10 16.0934 N/A

Powered by AerisWeather